Location: Newark
(47.5783°N, 6.7622°E)
Time: 05:21:34
(UTC+00:00)

Transit 4A - Visible Passes

Search period start: 24 February 2020 00:00
Search period end: 05 March 2020 00:00
Orbit: 872 x 973 km, 66.8° (Epoch: 23 February)

Date Brightness Start Highest point End Pass type
(mag) Time Alt. Az. Time Alt. Az. Time Alt. Az.
24 Feb 10.3 02:04:19 13° N 02:04:19 13° N 02:05:26 10° NNE visible
24 Feb 10.2 03:48:44 10° NNW 03:50:25 11° N 03:52:05 10° NNE visible
24 Feb 9.9 05:35:19 10° NNW 05:39:20 19° NNE 05:43:22 10° ENE visible
25 Feb 10.3 02:13:14 13° N 02:13:14 13° N 02:14:38 10° NNE visible
25 Feb 10.2 03:58:28 10° NNW 04:00:22 11° N 04:02:16 10° NNE visible
25 Feb 9.8 05:44:31 10° NNW 05:49:04 23° NNE 05:53:40 10° E visible
26 Feb 10.2 02:22:09 13° N 02:22:09 13° N 02:23:53 10° NNE visible
26 Feb 10.2 04:07:54 10° NNW 04:10:18 12° NNE 04:12:42 10° NE visible
27 Feb 10.2 02:31:03 12° N 02:31:04 12° N 02:33:13 10° NNE visible
27 Feb 10.2 04:17:12 10° NNW 04:20:12 14° NNE 04:23:14 10° NE visible
28 Feb 10.7 00:56:27 10° NNE 00:56:27 10° NNE 00:56:32 10° NNE visible
28 Feb 10.3 02:39:57 11° NNW 02:41:01 11° N 02:42:47 10° NNE visible
28 Feb 10.1 04:26:25 10° NNW 04:30:03 17° NNE 04:33:42 10° ENE visible
29 Feb 10.6 01:05:19 11° NNE 01:05:19 11° NNE 01:05:43 10° NNE visible
29 Feb 10.3 02:49:16 10° NNW 02:50:59 11° N 02:52:41 10° NNE visible
29 Feb 10.0 04:35:36 10° NNW 04:39:50 20° NNE 04:44:05 10° ENE visible
01 Mar 10.5 01:14:12 12° N 01:14:12 12° N 01:14:57 10° NNE visible
01 Mar 10.3 02:58:52 10° NNW 03:00:56 12° N 03:03:00 10° NNE visible
01 Mar 9.8 04:44:48 10° NNW 04:49:33 25° NE 04:54:19 10° E visible
02 Mar 10.5 01:23:02 12° N 01:23:02 12° N 01:24:13 10° NNE visible
02 Mar 10.3 03:08:14 10° NNW 03:10:51 13° NNE 03:13:29 10° NE visible
02 Mar 9.5 04:53:59 10° NNW 04:59:11 31° NE 05:04:25 10° ESE visible
03 Mar 10.4 01:31:52 12° N 01:31:52 12° N 01:33:37 10° NNE visible
03 Mar 10.3 03:17:29 10° NNW 03:20:44 15° NNE 03:24:00 10° NE visible
03 Mar 9.0 05:03:13 10° NNW 05:08:45 41° NE 05:14:20 10° ESE visible
04 Mar 10.4 01:40:41 11° N 01:41:35 11° N 01:43:17 10° NNE visible
04 Mar 10.2 03:26:42 10° NNW 03:30:34 18° NNE 03:34:26 10° ENE visible
04 Mar 8.5 05:12:28 10° NNW 05:18:14 56° NE 05:24:04 10° SE visible
